This is the latest recevied weather packets stored in our database for station/object N7CW. If no packets are shown the sender has not sent any weather packets the latest 10 day(s).
| Time | Temp. | Humidity | Pressure | Rain* | Wind** | Luminosity | Snow |
|---|---|---|---|---|---|---|---|
| 1777156030 | 15° C | 26% | 1011.8 hPa | 0 mm | - | 540 W/m² | - |
| 1777155727 | 13.89° C | 26% | 1011.6 hPa | 0 mm | - | 462 W/m² | - |
| 1777155423 | 14.44° C | 26% | 1012 hPa | 0 mm | - | 192 W/m² | - |
| 1777155120 | 15° C | 25% | 1012 hPa | 0 mm | - | 333 W/m² | - |
| 1777154817 | 15° C | 25% | 1012.2 hPa | 0 mm | - | 439 W/m² | - |
| 1777154514 | 14.44° C | 25% | 1012.2 hPa | 0 mm | - | 371 W/m² | - |
| 1777154209 | 15° C | 25% | 1012.4 hPa | 0 mm | - | 631 W/m² | - |
| 1777153905 | 15° C | 24% | 1012 hPa | 0 mm | - | 741 W/m² | - |
| 1777153601 | 15° C | 24% | 1012.2 hPa | 0 mm | - | 741 W/m² | - |
| 1777153297 | 13.89° C | 25% | 1012.2 hPa | 0 mm | - | 523 W/m² | - |
| 1777152994 | 13.33° C | 26% | 1012.4 hPa | 0 mm | - | 213 W/m² | - |
| 1777152691 | 13.33° C | 25% | 1012.7 hPa | 0 mm | - | 187 W/m² | - |
| 1777152387 | 13.33° C | 24% | 1012.9 hPa | 0 mm | - | 273 W/m² | - |
| 1777152084 | 13.33° C | 25% | 1012.8 hPa | 0 mm | - | 167 W/m² | - |
| 1777151779 | 13.33° C | 24% | 1012.8 hPa | 0 mm | - | 157 W/m² | - |
| 1777151475 | 13.33° C | 25% | 1012.8 hPa | 0 mm | - | 153 W/m² | - |
| 1777151172 | 13.33° C | 24% | 1012.7 hPa | 0 mm | - | 162 W/m² | - |
| 1777150871 | 13.89° C | 24% | 1012.5 hPa | 0 mm | - | 274 W/m² | - |
| 1777150567 | 14.44° C | 25% | 1012.8 hPa | 0 mm | - | 294 W/m² | - |
| 1777150263 | 14.44° C | 25% | 1012.6 hPa | 0 mm | - | 284 W/m² | - |
| 1777149961 | 15° C | 24% | 1012.5 hPa | 0 mm | - | 313 W/m² | - |
| 1777149656 | 15.56° C | 24% | 1012.6 hPa | 0 mm | - | 420 W/m² | - |
| 1777149353 | 15.56° C | 24% | 1012.4 hPa | 0 mm | - | 905 W/m² | - |
| 1777149049 | 15.56° C | 24% | 1012.8 hPa | 0 mm | - | 960 W/m² | - |
| 1777148744 | 14.44° C | 26% | 1012.5 hPa | 0 mm | - | 849 W/m² | - |
* Rain latest hour (hover to see other rain measurements)
** Current wind speed in m/s (hover to see current wind gust speed)